| Date | Time | Temp. (oF) | Dew Point (oF) | Rel. Hum. (%) | Press. (in.) | Wind Dir. | Wind Speed (mph) | Hourly Rainfall (in.) |
|
|---|---|---|---|---|---|---|---|---|---|
| 1 | 02/17 | 00:00 | 39 | 39 | 100 | 29.86 | SW | 3 | 0.00 |
| 2 | 02/16 | 23:00 | 38 | 37 | 100 | 29.86 | NW | 3 | 0.02 |
| 3 | 02/16 | 22:00 | 39 | 39 | 100 | 29.88 | NNW | 1 | 0.03 |
| 4 | 02/16 | 21:00 | 39 | 39 | 100 | 29.92 | NW | 2 | 0.03 |
| 5 | 02/16 | 20:00 | 40 | 39 | 98 | 29.92 | NW | 2 | 0.00 |
| 6 | 02/16 | 19:00 | 40 | 39 | 97 | 29.91 | ESE | 0 | 0.01 |
| 7 | 02/16 | 18:00 | 40 | 39 | 97 | 29.92 | NNE | 2 | 0.01 |
| 8 | 02/16 | 17:00 | 41 | 39 | 96 | 29.93 | NE | 4 | 0.05 |
| 9 | 02/16 | 16:00 | 41 | 39 | 95 | 29.95 | NE | 2 | 0.03 |
| 10 | 02/16 | 15:00 | 41 | 39 | 93 | 29.97 | NE | 4 | 0.03 |
| 11 | 02/16 | 14:00 | 42 | 39 | 90 | 29.99 | E | 1 | 0.02 |
| 12 | 02/16 | 13:00 | 42 | 38 | 89 | 30.03 | ESE | 3 | 0.01 |
| 13 | 02/16 | 12:00 | 41 | 37 | 88 | 30.05 | SE | 4 | 0.00 |
| 14 | 02/16 | 11:00 | 41 | 37 | 88 | 30.09 | SSE | 2 | 0.00 |
| 15 | 02/16 | 10:00 | 40 | 36 | 87 | 30.12 | ENE | 2 | 0.00 |
| 16 | 02/16 | 09:00 | 39 | 35 | 87 | 30.13 | ESE | 3 | 0.00 |
| 17 | 02/16 | 08:00 | 39 | 35 | 86 | 30.13 | E | 6 | 0.00 |
| 18 | 02/16 | 07:00 | 38 | 34 | 86 | 30.14 | SSE | 4 | 0.00 |
| 19 | 02/16 | 06:00 | 39 | 35 | 86 | 30.14 | E | 2 | 0.00 |
| 20 | 02/16 | 05:00 | 38 | 33 | 85 | 30.15 | E | 0 | 0.00 |
| 21 | 02/16 | 04:00 | 38 | 33 | 84 | 30.15 | NNE | 0 | 0.00 |
| 22 | 02/16 | 03:00 | 39 | 33 | 82 | 30.15 | ESE | 0 | 0.00 |
| 23 | 02/16 | 02:00 | 39 | 32 | 77 | 30.16 | NNW | 3 | 0.00 |
| 24 | 02/16 | 01:00 | 40 | 34 | 79 | 30.14 | E | 1 | 0.00 |